Regional Weather Roundup
Issued by NWS

Current Version | Previous Version | Text Only | Print | Product List | Glossary On
Versions: 1 2 3 4 5 6 7 8 9 10 11 12 13 14 15 16 17 18 19 20 21 22 23 24 25 26 27 28 29 30 31 32 33 34 35 36 37 38 39 40 41 42 43 44 45 46 47 48 49 50
000
ASUS46 KPQR 231710
RWROR

OREGON REGIONAL WEATHER ROUNDUP
NATIONAL WEATHER SERVICE PORTLAND OR
1000 AM PDT SUN JUL 23 2017

NOTE: "FAIR" INDICATES FEW OR NO CLOUDS BELOW 12,000 FEET WITH
NO SIGNIFICANT WEATHER AND/OR OBSTRUCTIONS TO VISIBILITY.

ORZ001>013-231800-
NORTHWEST OREGON


CITY           SKY/WX    TMP DP  RH WIND       PRES   REMARKS
ASTORIA        CLOUDY    61  52  72 N15       30.12S
NEWPORT        FAIR      61  54  77 N18       30.10F
PORTLAND       CLOUDY    67  59  75 NW12      30.06S
VANCOUVER WA   CLOUDY    67  60  78 NW13G21   30.05F
SCAPPOOSE      CLOUDY    68  59  73 N9        30.06S
HILLSBORO      PTSUNNY   70  60  70 N5        30.06S
AURORA         CLOUDY    71  59  65 N10       30.06F
MCMINNVILLE    FAIR      75  55  49 N9        30.05F
SALEM          PTSUNNY   72  60  66 N10       30.04S
CORVALLIS      PTSUNNY   73  61  64 NW3       30.04F
EUGENE         PTSUNNY   72  62  71 N18       30.03S
$$

ORZ021-028-231800-
SOUTHWEST OREGON


CITY           SKY/WX    TMP DP  RH WIND       PRES   REMARKS
NORTH BEND     CLOUDY    61  55  81 N21       30.05S
BROOKINGS      FAIR      59  55  87 SW3       29.88F
ROSEBURG       FAIR      77  62  59 N10       29.98F
SEXTON SUMMIT  FAIR      63  58  83 N8        30.07F
GRANTS PASS    FAIR      77  61  57 NW5       30.00F
MEDFORD        FAIR      75  57  53 CALM      29.97F
$$

ORZ014>016-041-231800-
COLUMBIA GORGE


CITY           SKY/WX    TMP DP  RH WIND       PRES   REMARKS
TROUTDALE      CLOUDY    68  60  75 NW3       30.05F
HOOD RIVER     FAIR      79  61  53 NW8       29.97F
THE DALLES     FAIR      81  64  56 NW10G22   29.93F
$$

ORZ029>031-041-044-049-050-061>064-502-503-505>511-231800-
EASTERN OREGON


CITY           SKY/WX    TMP DP  RH WIND       PRES   REMARKS
MADRAS         FAIR      79  50  36 CALM      30.06F
REDMOND        FAIR      80  49  33 VRB3      30.07F
BEND           FAIR      84  52  32 N6        30.09F
PRINEVILLE     FAIR      77  50  38 CALM      30.09S
KLAMATH FALLS  FAIR      76  52  43 NW10      30.07F
LAKEVIEW       FAIR      80  44  27 N15G21    30.11F
HERMISTON      FAIR      82  58  43 VRB5      29.93F
PENDLETON      FAIR      83  54  36 VRB6      29.97F
JOHN DAY       FAIR      79  45  30 CALM      30.10F
MEACHAM        FAIR      79  41  25 NE3       30.09F
LA GRANDE      FAIR      75  45  33 N3        30.05S
BAKER CITY     FAIR      76  47  35 SW5       30.08F
BURNS          FAIR      81  40  23 CALM      30.11F
ROME             N/A     84  32  15 NE6       30.08F
ONTARIO        FAIR      83  49  30 VRB3      30.00F
$$



USA.gov is the U.S. government's official web portal to all federal, state and local government web resources and services.